Location: Kaarina
(60.4167°N, 22.4167°E)
Time: 16:14:24
(UTC+03:00)

Cosmos 2322 - Pass Details

Date: 24 August 2019
Orbit: 839 x 856 km, 71.0° (Epoch: 22 October)

Event Time Altitude Azimuth Distance (km) Brightness Sun altitude
Rises 23:41:19 0° 317° (NW) 3,431 8.5 -15.2°
Reaches altitude 10° 23:43:47 10° 320° (NW) 2,495 7.4 -15.4°
Maximum altitude 23:49:32 76° 46° (NE) 889 3.8 -15.7°
Enters shadow 23:53:24 22° 129° (SE) 1,801 4.9 -15.9°
